Time,TemperatureF,DewpointF,PressureIn,WindDirection,WindDirectionDegrees,WindSpeedMPH,WindSpeedGustMPH,Humidity,HourlyPrecipIn,Conditions,Clouds,dailyrainin,SoftwareType,DateUTC
2013-02-16 00:01:00,43.0,39.0,30.26,North,0,0.0,-999.0,86,-99.99,,,-99.99,,2013-02-16 08:01:00,
2013-02-16 00:11:00,43.0,39.0,30.26,North,0,0.0,-999.0,86,-99.99,,,-99.99,,2013-02-16 08:11:00,
2013-02-16 00:21:00,43.0,39.0,30.26,North,0,0.0,-999.0,86,-99.99,,,-99.99,,2013-02-16 08:21:00,
2013-02-16 00:31:00,43.0,39.0,30.27,North,0,0.0,-999.0,86,-99.99,,,-99.99,,2013-02-16 08:31:00,
2013-02-16 00:41:00,43.0,39.0,30.26,North,0,0.0,-999.0,86,-99.99,,,-99.99,,2013-02-16 08:41:00,
2013-02-16 00:52:00,43.0,39.0,30.26,North,0,0.0,-999.0,86,-99.99,,,-99.99,,2013-02-16 08:52:00,
2013-02-16 01:01:00,43.0,39.0,30.26,North,0,0.0,-999.0,86,-99.99,,,-99.99,,2013-02-16 09:01:00,
2013-02-16 01:11:00,41.0,39.0,30.27,North,0,0.0,-999.0,93,-99.99,,,-99.99,,2013-02-16 09:11:00,
2013-02-16 01:21:00,39.0,37.0,30.26,North,0,0.0,-999.0,93,-99.99,,,-99.99,,2013-02-16 09:21:00,
2013-02-16 01:31:00,41.0,39.0,30.26,North,0,0.0,-999.0,93,-99.99,,,-99.99,,2013-02-16 09:31:00,
2013-02-16 01:42:00,43.0,39.0,30.27,North,0,0.0,-999.0,86,-99.99,,,-99.99,,2013-02-16 09:42:00,
2013-02-16 01:51:00,41.0,37.0,30.27,North,0,0.0,-999.0,86,-99.99,,,-99.99,,2013-02-16 09:51:00,
2013-02-16 02:01:00,41.0,37.0,30.27,North,0,0.0,-999.0,86,-99.99,,,-99.99,,2013-02-16 10:01:00,
2013-02-16 02:11:00,43.0,39.0,30.27,North,0,0.0,-999.0,86,-99.99,,,-99.99,,2013-02-16 10:11:00,
2013-02-16 02:21:00,41.0,37.0,30.26,North,0,0.0,-999.0,86,-99.99,,,-99.99,,2013-02-16 10:21:00,
2013-02-16 02:31:00,41.0,37.0,30.26,North,0,0.0,-999.0,86,-99.99,,,-99.99,,2013-02-16 10:31:00,
2013-02-16 02:41:00,43.0,39.0,30.26,North,0,0.0,-999.0,86,-99.99,,,-99.99,,2013-02-16 10:41:00,
2013-02-16 02:51:00,43.0,39.0,30.25,North,0,0.0,-999.0,86,-99.99,,,-99.99,,2013-02-16 10:51:00,
2013-02-16 03:01:00,43.0,39.0,30.25,North,0,0.0,-999.0,86,-99.99,,,-99.99,,2013-02-16 11:01:00,
2013-02-16 03:11:00,41.0,37.0,30.25,North,0,0.0,-999.0,86,-99.99,,,-99.99,,2013-02-16 11:11:00,
2013-02-16 03:22:00,43.0,39.0,30.25,North,0,0.0,-999.0,86,-99.99,,,-99.99,,2013-02-16 11:22:00,
2013-02-16 03:31:00,43.0,39.0,30.25,North,0,0.0,-999.0,86,-99.99,,,-99.99,,2013-02-16 11:31:00,
2013-02-16 03:42:00,43.0,39.0,30.25,North,0,0.0,-999.0,86,-99.99,,,-99.99,,2013-02-16 11:42:00,
2013-02-16 03:52:00,43.0,39.0,30.25,North,0,0.0,-999.0,86,-99.99,,,-99.99,,2013-02-16 11:52:00,
2013-02-16 04:01:00,43.0,39.0,30.25,North,0,0.0,-999.0,86,-99.99,,,-99.99,,2013-02-16 12:01:00,
2013-02-16 04:12:00,43.0,39.0,30.24,North,0,0.0,-999.0,86,-99.99,,,-99.99,,2013-02-16 12:12:00,
2013-02-16 04:22:00,43.0,39.0,30.24,North,0,0.0,-999.0,86,-99.99,,,-99.99,,2013-02-16 12:22:00,
2013-02-16 04:32:00,43.0,39.0,30.24,NW,320,7.0,-999.0,86,-99.99,,,-99.99,,2013-02-16 12:32:00,
2013-02-16 04:42:00,45.0,39.0,30.24,NNW,330,6.0,-999.0,81,-99.99,,,-99.99,,2013-02-16 12:42:00,
2013-02-16 04:52:00,43.0,39.0,30.24,NNW,330,6.0,-999.0,86,-99.99,,,-99.99,,2013-02-16 12:52:00,
2013-02-16 05:01:00,43.0,39.0,30.24,NNW,330,6.0,-999.0,86,-99.99,,,-99.99,,2013-02-16 13:01:00,
2013-02-16 05:11:00,43.0,39.0,30.23,NW,320,6.0,-999.0,86,-99.99,,,-99.99,,2013-02-16 13:11:00,
2013-02-16 05:21:00,43.0,39.0,30.23,NW,320,5.0,-999.0,86,-99.99,,,-99.99,,2013-02-16 13:21:00,
2013-02-16 05:31:00,43.0,41.0,30.23,NW,320,7.0,-999.0,93,-99.99,,,-99.99,,2013-02-16 13:31:00,
2013-02-16 05:41:00,43.0,41.0,30.23,NW,320,7.0,-999.0,93,-99.99,,,-99.99,,2013-02-16 13:41:00,
2013-02-16 05:51:00,43.0,39.0,30.23,NW,320,6.0,-999.0,86,-99.99,,,-99.99,,2013-02-16 13:51:00,
2013-02-16 06:01:00,43.0,39.0,30.23,NW,320,6.0,-999.0,86,-99.99,,,-99.99,,2013-02-16 14:01:00,
2013-02-16 06:11:00,43.0,39.0,30.23,NNW,330,5.0,-999.0,86,-99.99,,,-99.99,,2013-02-16 14:11:00,
2013-02-16 06:21:00,43.0,39.0,30.23,NW,320,7.0,-999.0,86,-99.99,,,-99.99,,2013-02-16 14:21:00,
2013-02-16 06:32:00,45.0,39.0,30.23,NNW,330,7.0,-999.0,81,-99.99,,,-99.99,,2013-02-16 14:32:00,
2013-02-16 06:41:00,45.0,39.0,30.23,NNW,340,7.0,-999.0,81,-99.99,,,-99.99,,2013-02-16 14:41:00,
2013-02-16 06:51:00,43.0,39.0,30.23,NNW,330,6.0,-999.0,86,-99.99,,,-99.99,,2013-02-16 14:51:00,
2013-02-16 07:01:00,43.0,39.0,30.23,NNW,330,6.0,-999.0,86,-99.99,,,-99.99,,2013-02-16 15:01:00,
2013-02-16 07:11:00,43.0,39.0,30.22,NNW,340,5.0,-999.0,86,-99.99,,,-99.99,,2013-02-16 15:11:00,
2013-02-16 07:21:00,43.0,39.0,30.22,NNW,330,5.0,-999.0,86,-99.99,,,-99.99,,2013-02-16 15:21:00,
2013-02-16 07:31:00,43.0,39.0,30.23,NNW,340,6.0,-999.0,86,-99.99,,,-99.99,,2013-02-16 15:31:00,
2013-02-16 07:41:00,43.0,39.0,30.23,NNW,340,5.0,-999.0,86,-99.99,,,-99.99,,2013-02-16 15:41:00,
2013-02-16 07:51:00,45.0,41.0,30.24,NNW,340,6.0,-999.0,87,-99.99,,,-99.99,,2013-02-16 15:51:00,
2013-02-16 08:01:00,45.0,41.0,30.24,NNW,340,6.0,-999.0,87,-99.99,,,-99.99,,2013-02-16 16:01:00,
2013-02-16 08:11:00,45.0,43.0,30.23,NNW,330,6.0,-999.0,93,-99.99,,,-99.99,,2013-02-16 16:11:00,
2013-02-16 08:21:00,46.0,45.0,30.23,NW,320,5.0,-999.0,93,-99.99,,,-99.99,,2013-02-16 16:21:00,
2013-02-16 08:32:00,46.0,45.0,30.23,NNW,340,7.0,-999.0,93,-99.99,,,-99.99,,2013-02-16 16:32:00,
2013-02-16 08:41:00,48.0,45.0,30.23,NW,320,7.0,-999.0,87,-99.99,,,-99.99,,2013-02-16 16:41:00,
2013-02-16 08:51:00,48.0,45.0,30.23,NNW,330,6.0,-999.0,87,-99.99,,,-99.99,,2013-02-16 16:51:00,
2013-02-16 09:01:00,48.0,45.0,30.23,NNW,330,6.0,-999.0,87,-99.99,,,-99.99,,2013-02-16 17:01:00,
2013-02-16 09:11:00,50.0,45.0,30.23,NW,320,5.0,-999.0,81,-99.99,,,-99.99,,2013-02-16 17:11:00,
2013-02-16 09:21:00,52.0,46.0,30.23,NW,320,5.0,-999.0,81,-99.99,,,-99.99,,2013-02-16 17:21:00,
2013-02-16 09:31:00,54.0,46.0,30.23,NW,310,3.0,-999.0,76,-99.99,,,-99.99,,2013-02-16 17:31:00,
2013-02-16 09:41:00,54.0,46.0,30.23,NW,320,6.0,-999.0,76,-99.99,,,-99.99,,2013-02-16 17:41:00,
2013-02-16 09:52:00,55.0,45.0,30.23,NNW,340,7.0,-999.0,66,-99.99,,,-99.99,,2013-02-16 17:52:00,
2013-02-16 10:01:00,55.0,45.0,30.23,NNW,340,7.0,-999.0,66,-99.99,,,-99.99,,2013-02-16 18:01:00,
2013-02-16 10:11:00,55.0,43.0,30.22,NNW,340,7.0,-999.0,62,-99.99,,,-99.99,,2013-02-16 18:11:00,
2013-02-16 10:21:00,57.0,43.0,30.22,North,350,7.0,-999.0,58,-99.99,,,-99.99,,2013-02-16 18:21:00,
2013-02-16 10:32:00,57.0,43.0,30.22,North,350,9.0,-999.0,58,-99.99,,,-99.99,,2013-02-16 18:32:00,
2013-02-16 10:41:00,57.0,43.0,30.22,NW,320,6.0,-999.0,58,-99.99,,,-99.99,,2013-02-16 18:41:00,
2013-02-16 10:51:00,59.0,43.0,30.22,NNW,330,8.0,-999.0,54,-99.99,,,-99.99,,2013-02-16 18:51:00,
2013-02-16 11:02:00,59.0,43.0,30.22,NNW,330,8.0,-999.0,54,-99.99,,,-99.99,,2013-02-16 19:02:00,
2013-02-16 11:11:00,59.0,41.0,30.22,North,0,6.0,-999.0,51,-99.99,,,-99.99,,2013-02-16 19:11:00,
2013-02-16 11:21:00,61.0,43.0,30.21,North,0,7.0,-999.0,51,-99.99,,,-99.99,,2013-02-16 19:21:00,
2013-02-16 11:31:00,61.0,43.0,30.21,North,10,7.0,-999.0,51,-99.99,,,-99.99,,2013-02-16 19:31:00,
2013-02-16 11:42:00,61.0,43.0,30.21,North,350,7.0,-999.0,51,-99.99,,,-99.99,,2013-02-16 19:42:00,
2013-02-16 11:52:00,61.0,43.0,30.20,North,10,6.0,-999.0,51,-99.99,,,-99.99,,2013-02-16 19:52:00,
2013-02-16 12:01:00,61.0,43.0,30.20,North,10,6.0,-999.0,51,-99.99,,,-99.99,,2013-02-16 20:01:00,
2013-02-16 12:11:00,61.0,43.0,30.20,North,10,7.0,-999.0,51,-99.99,,,-99.99,,2013-02-16 20:11:00,
2013-02-16 12:21:00,63.0,43.0,30.19,North,0,0.0,-999.0,48,-99.99,,,-99.99,,2013-02-16 20:21:00,
2013-02-16 12:31:00,63.0,43.0,30.18,NNW,330,7.0,-999.0,48,-99.99,,,-99.99,,2013-02-16 20:31:00,
2013-02-16 12:42:00,64.0,43.0,30.18,NNW,340,5.0,-999.0,45,-99.99,,,-99.99,,2013-02-16 20:42:00,
2013-02-16 12:52:00,64.0,43.0,30.17,NNW,340,5.0,-999.0,45,-99.99,,,-99.99,,2013-02-16 20:52:00,
2013-02-16 13:02:00,64.0,43.0,30.17,NNW,340,5.0,-999.0,45,-99.99,,,-99.99,,2013-02-16 21:02:00,
2013-02-16 13:11:00,66.0,43.0,30.16,NE,50,6.0,-999.0,42,-99.99,,,-99.99,,2013-02-16 21:11:00,
2013-02-16 13:21:00,64.0,43.0,30.15,NE,50,1.0,-999.0,45,-99.99,,,-99.99,,2013-02-16 21:21:00,
2013-02-16 13:31:00,66.0,43.0,30.15,North,0,0.0,-999.0,42,-99.99,,,-99.99,,2013-02-16 21:31:00,
2013-02-16 13:41:00,66.0,43.0,30.15,North,0,0.0,-999.0,42,-99.99,,,-99.99,,2013-02-16 21:41:00,
2013-02-16 13:51:00,66.0,43.0,30.14,NNE,20,3.0,-999.0,42,-99.99,,,-99.99,,2013-02-16 21:51:00,
2013-02-16 14:01:00,66.0,43.0,30.14,NNE,20,3.0,-999.0,42,-99.99,,,-99.99,,2013-02-16 22:01:00,
2013-02-16 14:11:00,66.0,43.0,30.13,North,0,0.0,-999.0,42,-99.99,,,-99.99,,2013-02-16 22:11:00,
2013-02-16 14:21:00,66.0,43.0,30.12,North,0,0.0,-999.0,42,-99.99,,,-99.99,,2013-02-16 22:21:00,
2013-02-16 14:31:00,66.0,43.0,30.12,North,0,0.0,-999.0,42,-99.99,,,-99.99,,2013-02-16 22:31:00,
2013-02-16 14:42:00,66.0,43.0,30.12,North,0,0.0,-999.0,42,-99.99,,,-99.99,,2013-02-16 22:42:00,
2013-02-16 14:51:00,68.0,43.0,30.11,North,0,0.0,-999.0,40,-99.99,,,-99.99,,2013-02-16 22:51:00,
2013-02-16 15:02:00,68.0,43.0,30.11,North,0,0.0,-999.0,40,-99.99,,,-99.99,,2013-02-16 23:02:00,
2013-02-16 15:11:00,68.0,43.0,30.10,North,0,0.0,-999.0,40,-99.99,,,-99.99,,2013-02-16 23:11:00,
2013-02-16 15:21:00,70.0,43.0,30.10,East,90,5.0,-999.0,37,-99.99,,,-99.99,,2013-02-16 23:21:00,
2013-02-16 15:31:00,68.0,43.0,30.10,North,0,0.0,-999.0,40,-99.99,,,-99.99,,2013-02-16 23:31:00,
2013-02-16 15:41:00,68.0,43.0,30.10,North,0,0.0,-999.0,40,-99.99,,,-99.99,,2013-02-16 23:41:00,
2013-02-16 15:52:00,68.0,43.0,30.09,North,0,0.0,-999.0,40,-99.99,,,-99.99,,2013-02-16 23:52:00,
2013-02-16 16:01:00,68.0,43.0,30.09,North,0,0.0,-999.0,40,-99.99,,,-99.99,,2013-02-17 00:01:00,
2013-02-16 16:11:00,68.0,43.0,30.08,North,0,0.0,-999.0,40,-99.99,,,-99.99,,2013-02-17 00:11:00,
2013-02-16 16:21:00,68.0,43.0,30.08,North,0,0.0,-999.0,40,-99.99,,,-99.99,,2013-02-17 00:21:00,
2013-02-16 16:31:00,68.0,45.0,30.08,North,0,0.0,-999.0,42,-99.99,,,-99.99,,2013-02-17 00:31:00,
2013-02-16 16:41:00,66.0,43.0,30.08,North,0,0.0,-999.0,42,-99.99,,,-99.99,,2013-02-17 00:41:00,
2013-02-16 16:51:00,66.0,43.0,30.07,North,0,0.0,-999.0,42,-99.99,,,-99.99,,2013-02-17 00:51:00,
2013-02-16 17:01:00,66.0,43.0,30.07,North,0,0.0,-999.0,42,-99.99,,,-99.99,,2013-02-17 01:01:00,
2013-02-16 17:11:00,66.0,43.0,30.07,North,0,0.0,-999.0,42,-99.99,,,-99.99,,2013-02-17 01:11:00,
2013-02-16 17:21:00,64.0,43.0,30.07,North,0,0.0,-999.0,45,-99.99,,,-99.99,,2013-02-17 01:21:00,
2013-02-16 17:31:00,64.0,45.0,30.07,North,0,0.0,-999.0,48,-99.99,,,-99.99,,2013-02-17 01:31:00,
2013-02-16 17:41:00,64.0,43.0,30.07,North,0,0.0,-999.0,45,-99.99,,,-99.99,,2013-02-17 01:41:00,
2013-02-16 17:52:00,63.0,43.0,30.07,North,0,0.0,-999.0,48,-99.99,,,-99.99,,2013-02-17 01:52:00,
2013-02-16 18:01:00,63.0,43.0,30.07,North,0,0.0,-999.0,48,-99.99,,,-99.99,,2013-02-17 02:01:00,
2013-02-16 18:11:00,61.0,43.0,30.06,North,0,0.0,-999.0,51,-99.99,,,-99.99,,2013-02-17 02:11:00,
2013-02-16 18:21:00,61.0,45.0,30.06,North,0,0.0,-999.0,55,-99.99,,,-99.99,,2013-02-17 02:21:00,
2013-02-16 18:31:00,59.0,45.0,30.06,SE,140,5.0,-999.0,58,-99.99,,,-99.99,,2013-02-17 02:31:00,
2013-02-16 18:41:00,59.0,45.0,30.06,SSE,150,3.0,-999.0,58,-99.99,,,-99.99,,2013-02-17 02:41:00,
2013-02-16 18:51:00,57.0,46.0,30.06,North,0,0.0,-999.0,67,-99.99,,,-99.99,,2013-02-17 02:51:00,
2013-02-16 19:01:00,57.0,46.0,30.06,North,0,0.0,-999.0,67,-99.99,,,-99.99,,2013-02-17 03:01:00,
2013-02-16 19:11:00,57.0,46.0,30.06,North,0,0.0,-999.0,67,-99.99,,,-99.99,,2013-02-17 03:11:00,
2013-02-16 19:21:00,55.0,46.0,30.06,SSE,150,5.0,-999.0,71,-99.99,,,-99.99,,2013-02-17 03:21:00,
2013-02-16 19:31:00,55.0,46.0,30.05,North,0,0.0,-999.0,71,-99.99,,,-99.99,,2013-02-17 03:31:00,
2013-02-16 19:41:00,55.0,46.0,30.06,North,0,0.0,-999.0,71,-99.99,,,-99.99,,2013-02-17 03:41:00,
2013-02-16 19:51:00,55.0,46.0,30.05,North,0,0.0,-999.0,71,-99.99,,,-99.99,,2013-02-17 03:51:00,
2013-02-16 20:01:00,55.0,46.0,30.05,North,0,0.0,-999.0,71,-99.99,,,-99.99,,2013-02-17 04:01:00,
2013-02-16 20:11:00,54.0,46.0,30.05,North,0,0.0,-999.0,76,-99.99,,,-99.99,,2013-02-17 04:11:00,
2013-02-16 20:21:00,55.0,46.0,30.05,SSE,150,6.0,-999.0,71,-99.99,,,-99.99,,2013-02-17 04:21:00,
2013-02-16 20:31:00,55.0,46.0,30.05,North,0,0.0,-999.0,71,-99.99,,,-99.99,,2013-02-17 04:31:00,
2013-02-16 20:41:00,55.0,46.0,30.05,North,0,0.0,-999.0,71,-99.99,,,-99.99,,2013-02-17 04:41:00,
2013-02-16 20:51:00,55.0,46.0,30.05,North,0,0.0,-999.0,71,-99.99,,,-99.99,,2013-02-17 04:51:00,
2013-02-16 21:01:00,55.0,46.0,30.05,North,0,0.0,-999.0,71,-99.99,,,-99.99,,2013-02-17 05:01:00,
2013-02-16 21:11:00,54.0,46.0,30.04,North,0,0.0,-999.0,76,-99.99,,,-99.99,,2013-02-17 05:11:00,
2013-02-16 21:21:00,52.0,46.0,30.04,North,0,0.0,-999.0,81,-99.99,,,-99.99,,2013-02-17 05:21:00,
2013-02-16 21:32:00,54.0,48.0,30.04,North,0,0.0,-999.0,81,-99.99,,,-99.99,,2013-02-17 05:32:00,
2013-02-16 21:42:00,52.0,46.0,30.04,North,0,0.0,-999.0,81,-99.99,,,-99.99,,2013-02-17 05:42:00,
2013-02-16 21:51:00,52.0,46.0,30.04,North,0,0.0,-999.0,81,-99.99,,,-99.99,,2013-02-17 05:51:00,
2013-02-16 22:01:00,52.0,46.0,30.04,North,0,0.0,-999.0,81,-99.99,,,-99.99,,2013-02-17 06:01:00,
2013-02-16 22:11:00,52.0,46.0,30.04,North,0,0.0,-999.0,81,-99.99,,,-99.99,,2013-02-17 06:11:00,
2013-02-16 22:21:00,50.0,46.0,30.04,North,0,0.0,-999.0,87,-99.99,,,-99.99,,2013-02-17 06:21:00,
2013-02-16 22:31:00,52.0,46.0,30.04,SE,130,5.0,-999.0,81,-99.99,,,-99.99,,2013-02-17 06:31:00,
2013-02-16 22:41:00,52.0,46.0,30.04,North,0,0.0,-999.0,81,-99.99,,,-99.99,,2013-02-17 06:41:00,
2013-02-16 22:51:00,48.0,46.0,30.04,North,0,0.0,-999.0,93,-99.99,,,-99.99,,2013-02-17 06:51:00,
2013-02-16 23:01:00,48.0,46.0,30.04,North,0,0.0,-999.0,93,-99.99,,,-99.99,,2013-02-17 07:01:00,
2013-02-16 23:11:00,46.0,45.0,30.04,North,0,0.0,-999.0,93,-99.99,,,-99.99,,2013-02-17 07:11:00,
2013-02-16 23:21:00,45.0,45.0,30.03,North,0,0.0,-999.0,100,-99.99,,,-99.99,,2013-02-17 07:21:00,
2013-02-16 23:31:00,43.0,43.0,30.03,North,0,0.0,-999.0,100,-99.99,,,-99.99,,2013-02-17 07:31:00,
2013-02-16 23:41:00,43.0,43.0,30.03,North,0,0.0,-999.0,100,-99.99,,,-99.99,,2013-02-17 07:41:00,
2013-02-16 23:51:00,41.0,41.0,30.03,North,0,0.0,-999.0,100,-99.99,,,-99.99,,2013-02-17 07:51:00,